Location: Oberwangen
(47.4286°N, 8.9679°E)
Time: 21:10:52
(UTC+00:00)

USA 32 - Pass Details

Date: 20 June 2021
Orbit: 777 x 783 km, 85.0° (Epoch: 15 July)

Event Time Altitude Azimuth Distance (km) Brightness Sun altitude
Rises 22:43:32 0° 357° (N) 3,276 8.9 -18.5°
Reaches altitude 10° 22:45:56 10° 1° (N) 2,343 7.7 -18.6°
Maximum altitude 22:51:08 61° 81° (E) 884 4.3 -18.7°
Enters shadow 22:53:23 33° 149° (SSE) 1,293 4.7 -18.8°
